SCP
1 1 1 1 1 1 1 1 1 1 1 1 1 1 1 1 1 1 1 1 1 1 2 2 2 2 2 2 2 2 1 1 1 1 1 1 1 1 2 2 2 2 2
1 1 1 1 1 1 1 1 1 1 1 1 1 1 1 1 1 1 1 1 1 1 2 2 2 2 2 2 2 2 1 1 1 1 1 1 1 2 2 2 2 2 2
1 1 1 1 1 1 1 1 1 1 1 1 1 1 1 1 1 1 1 1 1 1 2 2 2 2 2 2 2 1 1 1 1 1 1 1 1 2 2 2 2 2 2
1 1 1 1 1 1 1 1 1 1 1 1 1 0 0 1 1 1 1 1 1 1 2 2 2 2 2 1 1 1 1 1 1 1 1 1 1 2 2 2 2 1 1
1 1 1 1 1 1 1 1 1 1 1 1 1 0 0 0 1 1 1 1 1 1 1 1 1 1 1 1 1 1 1 1 1 1 1 1 1 2 3 2 1 1 1
1 1 1 1 1 1 1 1 1 1 1 1 1 1 1 1 1 1 1 1 1 1 1 1 1 1 1 1 1 1 1 1 1 1 1 1 1 2 2 2 1 1 1
1 1 2 3 2 1 1 1 1 1 1 1 1 1 1 1 1 1 1 1 1 1 1 1 1 1 1 1 1 1 2 2 2 1 1 1 1 2 2 1 1 1 1
1 1 2 3 3 2 2 1 1 1 1 1 1 1 1 1 1 1 1 1 1 1 1 1 1 1 2 2 2 2 2 2 2 1 1 1 2 2 2 1 1 1 1
0 1 1 2 3 2 2 2 1 1 1 1 1 1 1 1 1 1 1 1 1 1 1 1 2 2 2 3 3 3 3 3 2 2 2 2 2 2 1 1 1 1 0
0 0 1 1 1 2 2 2 2 2 1 1 1 1 1 1 1 1 1 1 1 1 1 2 2 3 3 4 4 4 4 3 2 2 2 2 1 1 1 1 1 1 0
1 1 1 1 1 1 1 1 2 2 1 1 1 1 1 1 1 1 1 1 2 2 2 3 3 3 4 4 4 4 4 3 2 2 2 1 1 1 1 1 1 1 0
1 1 1 1 1 1 1 1 1 1 1 1 1 1 1 1 1 1 1 1 2 2 2 3 3 3 3 3 3 3 3 2 1 1 1 1 1 1 1 1 1 1 0
1 1 1 1 1 1 1 1 1 1 1 1 1 1 1 1 1 1 1 1 2 2 2 2 2 2 2 2 1 1 1 1 1 1 1 1 1 1 1 1 1 1 1
1 1 1 1 1 1 1 1 1 1 1 1 2 2 2 1 1 1 1 1 1 1 1 1 1 1 1 1 1 1 1 1 1 1 1 1 1 1 1 1 1 1 1
1 1 1 2 2 2 2 2 1 1 1 1 2 2 2 2 1 1 1 1 1 1 1 1 1 1 2 2 1 2 1 1 1 1 1 1 1 1 1 1 1 1 1
1 1 2 2 3 3 3 2 2 2 2 2 2 3 3 2 2 2 2 2 1 1 1 1 1 1 2 1 2 2 2 1 1 1 1 1 1 1 1 1 1 1 1
1 1 2 2 3 3 3 3 2 2 2 2 3 3 3 3 3 3 3 2 2 2 1 1 1 1 1 1 2 2 2 2 1 1 1 1 1 1 1 1 1 1 1
2 1 2 2 3 3 4 3 3 2 2 3 3 3 3 3 3 3 3 3 2 2 2 1 1 1 1 1 1 2 3 2 1 1 1 1 1 1 1 1 1 1 1
3 2 2 2 3 4 4 3 3 3 3 3 3 3 2 2 2 3 2 2 2 2 2 1 1 1 1 1 1 2 3 2 2 1 1 1 1 1 1 1 1 1 1
4 3 2 2 3 3 4 3 3 4 4 3 3 2 2 2 2 2 2 2 2 2 1 1 1 1 1 1 1 1 2 3 2 1 1 1 1 2 1 1 1 1 1
5 4 3 3 3 3 3 3 3 4 4 3 2 2 2 2 2 2 2 2 2 2 2 1 1 1 1 1 1 1 2 2 2 1 1 1 1 2 2 2 1 1 1
5 4 3 3 3 3 3 3 3 3 3 3 3 3 2 2 2 3 3 3 2 2 2 1 1 1 1 1 1 1 2 2 2 2 1 2 2 2 2 2 2 2 2
5 4 3 3 3 3 3 3 3 3 2 3 3 3 3 3 3 3 3 3 3 3 2 2 1 1 1 1 1 1 1 2 2 1 1 2 2 2 2 2 2 3 3
5 4 4 4 4 3 3 3 3 3 3 3 3 3 3 3 3 3 2 2 2 2 2 2 2 1 1 1 1 1 1 2 2 1 1 2 2 2 3 3 2 3 3
4 4 4 4 4 3 3 3 3 3 3 3 3 3 3 3 3 3 2 2 2 2 2 2 2 2 1 2 2 2 2 2 2 2 2 2 2 2 3 3 2 2 2
3 4 4 5 4 4 3 3 3 3 3 3 2 2 3 3 4 3 3 2 3 3 2 2 2 2 1 1 2 2 1 2 2 2 2 2 2 2 2 2 2 2 2
Wind_Speed
7 8 9 10 11 11 11 10 11 11 11 11 11 11 11 10 10 11 10 10 10 11 12 13 13 13 13 14 15 16 16 15 14 14 14 14 13 12 11 11 10 8 12
9 9 10 9 10 11 10 10 10 10 10 10 11 11 11 11 11 11 10 10 10 11 12 13 13 13 13 14 15 15 15 15 14 14 14 12 12 11 11 10 9 8 12
9 9 9 10 10 10 10 9 10 10 10 10 11 11 11 11 11 11 11 11 11 12 13 13 12 12 13 14 14 14 14 14 14 14 13 9 9 11 11 11 12 12 12
10 9 9 10 10 10 10 9 10 10 10 10 10 11 11 11 11 11 12 12 12 12 13 12 12 12 13 13 13 13 13 13 13 12 7 8 9 12 11 11 11 11 11
11 11 10 11 11 10 9 9 10 9 9 10 10 11 11 11 11 11 12 12 12 12 12 12 12 12 12 12 11 11 11 11 11 8 6 6 7 11 12 11 11 11 10
12 12 11 11 11 10 10 10 9 9 9 9 10 10 10 10 10 11 11 12 12 12 12 12 12 12 12 11 10 9 9 9 8 5 6 7 7 12 12 11 10 10 10
12 11 11 11 10 9 9 9 9 9 9 9 9 9 10 10 10 11 11 11 11 11 12 12 12 11 11 10 9 7 6 6 5 5 5 6 8 12 12 11 10 10 9
11 11 10 10 10 10 9 8 8 8 8 8 8 9 9 9 9 10 10 10 10 11 11 11 11 10 10 9 8 6 4 4 4 7 6 6 11 11 11 10 10 9 9
9 10 9 9 9 9 8 8 7 8 7 8 8 8 8 9 9 10 9 9 10 10 11 11 10 10 9 8 7 5 3 2 2 4 7 7 11 11 11 10 9 9 8
8 8 7 7 7 7 7 7 7 6 6 7 7 8 8 7 8 9 9 9 9 10 10 10 10 9 8 7 6 4 3 1 3 6 5 7 11 11 10 9 9 8 8
7 6 6 6 5 6 7 8 6 5 4 5 5 6 5 4 5 6 9 10 9 9 9 9 8 8 7 6 4 3 2 1 5 6 5 10 10 10 10 9 8 8 7
6 6 5 6 4 4 5 5 3 4 4 3 3 3 2 3 3 6 8 9 9 8 8 8 7 7 5 3 4 3 1 3 5 6 7 13 11 9 9 7 7 6 6
6 5 7 6 4 4 4 3 2 2 3 3 4 3 3 2 3 4 3 4 5 6 4 6 4 3 3 2 2 2 2 3 4 5 8 12 10 9 8 7 6 6 6
6 6 6 6 5 4 4 2 2 2 2 3 3 3 3 2 2 3 2 2 2 2 3 3 2 2 3 3 3 3 3 3 5 5 7 11 9 8 7 6 5 5 5
6 7 7 6 5 4 3 1 3 3 3 4 3 3 3 2 3 3 1 1 2 2 2 2 3 3 3 3 3 5 5 6 6 6 6 10 9 7 6 5 5 6 5
6 7 6 6 6 3 2 2 2 3 3 3 3 3 3 3 3 2 2 1 2 3 2 2 4 3 2 2 4 4 4 4 5 6 6 6 8 7 6 5 6 6 5
6 6 6 6 6 3 2 1 2 2 3 2 3 3 3 3 3 2 2 2 2 2 3 2 3 2 2 3 4 4 3 3 4 4 5 4 4 6 6 5 5 5 5
7 6 3 5 6 4 2 1 2 2 2 3 3 3 3 3 3 2 2 2 2 2 2 3 2 2 2 2 2 2 3 3 3 3 4 4 4 4 5 6 5 5 5
7 6 4 4 5 4 3 2 2 2 2 2 2 2 3 3 2 2 2 2 2 2 2 3 3 2 2 2 2 2 2 2 2 3 3 4 4 4 4 5 5 4 5
7 6 5 4 3 3 2 2 2 2 2 2 3 3 3 2 2 1 3 2 2 2 2 3 3 2 2 2 2 3 2 2 2 2 2 3 3 4 4 4 3 3 4
7 6 5 4 3 2 1 1 2 2 2 2 3 3 3 2 2 2 2 2 2 2 2 2 2 2 2 2 2 2 1 2 2 2 2 2 2 3 4 4 3 2 2
8 7 6 5 4 3 2 1 1 1 2 2 3 3 3 2 1 2 2 2 2 2 2 1 1 1 1 2 1 1 2 1 1 2 2 2 1 2 3 4 3 3 2
9 8 6 5 4 3 3 2 2 1 0 2 3 2 2 2 2 2 2 1 1 2 2 2 1 1 1 0 1 1 1 1 2 1 2 2 2 2 2 2 3 2 2
9 8 7 6 5 3 2 2 2 2 2 2 2 2 2 2 2 2 2 1 1 1 1 2 2 1 1 1 1 0 0 1 1 2 1 1 2 2 2 2 2 3 3
9 9 8 7 5 4 3 2 1 1 2 2 2 3 3 2 1 2 2 1 1 0 1 0 0 0 1 1 1 1 1 1 1 2 2 2 1 1 1 1 2 2 3
9 9 9 8 6 5 4 3 3 2 1 2 2 2 2 2 1 1 2 1 1 1 1 1 0 1 0 1 1 1 1 1 1 2 2 2 2 1 2 1 2 3 3
Wind_Direction
87 85 71 61 59 59 61 64 66 68 70 71 72 75 84 88 89 91 93 95 99 104 112 120 122 124 128 130 131 134 134 133 134 133 132 131 128 126 126 125 126 120 120
93 91 80 67 65 65 62 64 68 69 70 71 72 76 83 87 91 92 93 95 98 101 107 113 117 120 126 130 132 134 135 136 137 139 138 133 129 128 129 129 122 120 124
95 95 89 74 70 72 66 67 70 71 70 74 75 78 83 87 90 91 92 96 100 102 106 110 113 118 124 130 134 138 140 144 147 147 145 136 131 131 128 126 123 129 128
101 94 85 81 73 70 66 69 71 72 73 77 80 81 86 88 87 87 93 97 101 102 102 106 111 118 126 130 136 140 146 152 153 152 154 142 139 137 133 130 131 134 133
98 94 90 86 78 71 67 68 71 73 75 80 84 85 88 89 87 89 96 98 102 105 105 104 108 111 122 127 134 140 145 153 155 156 145 132 128 139 138 138 140 140 138
101 97 94 91 81 72 66 67 70 75 79 83 86 88 91 92 92 93 95 96 101 106 108 106 109 110 115 120 127 133 141 152 155 154 140 134 133 144 143 145 145 144 144
104 104 104 100 89 80 72 69 72 78 85 88 93 95 97 97 97 96 98 98 102 107 109 109 108 114 119 123 127 135 145 149 160 138 131 131 133 144 146 146 144 142 144
105 106 109 106 100 92 84 79 82 85 92 94 97 101 105 107 105 100 98 100 104 110 113 113 114 117 123 128 135 146 157 164 138 135 128 118 130 138 140 140 141 142 143
104 111 118 122 115 106 96 94 101 95 99 104 107 112 114 117 116 109 103 104 109 114 118 119 121 123 129 135 143 152 172 182 117 126 125 123 135 140 144 142 143 145 144
99 107 111 116 127 128 121 117 115 110 111 118 126 131 131 129 125 121 114 110 114 120 125 128 130 129 134 141 151 166 189 218 126 108 106 127 141 145 145 144 146 145 145
101 107 110 109 122 125 122 126 135 129 127 137 135 142 143 133 133 132 121 125 124 125 131 136 139 140 144 149 163 173 188 167 121 107 107 122 132 138 140 143 145 148 153
107 108 101 89 93 97 98 117 125 121 123 116 105 118 134 123 123 116 130 139 135 131 135 146 153 157 158 153 163 181 192 131 112 108 118 129 129 135 140 147 149 152 156
117 103 95 87 73 73 82 94 94 100 105 101 88 80 83 83 98 105 133 143 142 146 144 139 158 150 136 131 130 148 141 106 106 109 124 128 128 133 141 148 150 153 155
113 101 96 92 82 67 66 76 100 96 95 88 83 73 78 76 69 83 85 103 127 121 113 113 114 97 103 108 117 116 104 92 97 103 121 123 123 127 134 141 148 157 161
117 108 98 92 79 71 62 49 94 92 89 93 86 77 71 72 73 74 70 56 89 93 100 105 96 81 78 85 92 91 80 88 101 110 118 127 129 127 132 145 153 160 161
125 115 117 112 101 86 83 62 78 97 95 96 101 90 88 88 85 79 82 80 84 94 97 102 109 102 89 85 83 86 82 85 92 108 123 135 137 136 138 148 159 161 163
120 115 126 125 119 113 91 77 98 101 110 99 95 88 83 91 102 98 82 92 95 98 99 89 94 107 111 95 93 101 101 93 99 110 124 135 145 147 143 144 151 155 159
122 118 121 122 122 123 108 70 54 70 79 87 95 101 94 90 95 104 101 99 110 114 115 114 102 103 94 88 92 98 109 111 115 128 128 133 137 145 152 148 141 147 154
127 128 126 105 117 123 125 124 118 101 81 80 85 88 99 100 95 109 104 105 130 121 113 114 108 113 120 118 127 128 117 121 132 131 126 133 136 134 141 155 150 137 157
135 131 127 123 111 125 135 133 117 110 102 101 94 87 82 89 88 96 105 108 112 99 90 90 113 123 128 145 143 123 123 127 127 122 129 124 129 135 136 140 159 161 151
138 131 129 130 126 125 103 107 116 121 115 109 111 106 103 91 83 71 89 95 89 96 110 122 126 144 155 142 118 116 117 128 130 121 129 121 131 135 130 136 148 153 162
142 142 145 145 144 152 144 149 144 121 131 127 103 107 111 100 79 90 102 115 116 119 118 134 149 151 176 156 165 169 156 133 115 143 139 129 120 118 125 137 138 137 134
155 156 153 147 148 158 156 156 139 130 138 107 110 119 117 122 107 70 78 78 112 133 143 165 163 176 203 214 172 185 166 160 153 122 130 119 117 110 107 109 123 129 128
161 158 147 147 149 155 161 170 174 154 147 124 127 129 127 116 116 113 98 83 48 85 129 183 171 211 200 233 193 194 164 131 150 133 119 119 121 105 95 96 98 99 98
166 160 153 148 152 159 169 159 175 155 150 134 134 136 137 132 127 124 121 123 127 130 136 114 83 238 255 263 260 209 181 176 201 162 161 158 117 105 111 97 91 94 91
168 163 158 151 155 161 171 169 167 170 144 127 136 137 161 145 131 120 135 135 142 148 130 134 256 215 256 297 298 284 233 196 178 176 169 168 154 133 111 95 104 106 105